[[{"header":{"parameterUnit":"m.s-1","parameterCategory":1,"la1":30.2992,"la2":30.254,"lo1":-89.0895,"lo2":-89.0443,"dy":0.0025,"dx":0.0025,"nx":19,"ny":19,"refTime":"2026-05-22T09:00:00:Z","depth":0,"parameterNumber":2,"parameterNumberName":"U-component_of_WINDS"},"data":[0,0,0,-1.1823,-1.1824,-1.192,-1.192,-1.2032,-1.2033,0,0,0,0,0,0,0,0,0,0,0,-1.1787,-1.1788,-1.1822,-1.1825,-1.192,-1.192,-1.2032,-1.2033,0,0,0,0,0,0,0,0,0,0,0,-1.1787,-1.1788,-1.1788,-1.1825,-1.192,-1.192,-1.2032,-1.1964,0,0,0,0,0,0,0,0,0,0,-1.1873,-1.1833,-1.1787,-1.1788,-1.1825,-1.192,-1.192,-1.1961,-1.1968,-1.1984,0,-1.1996,0,-1.2016,-1.204,-1.204,0,0,0,-1.183,-1.1827,-1.1859,-1.1788,-1.1826,-1.1919,-1.1878,-1.1965,-1.1973,-1.1994,-1.1997,-1.2002,-1.2018,-1.204,-1.2041,-1.2112,-1.2112,0,0,-1.1825,-1.1801,-1.1853,-1.1864,-1.1847,-1.1875,-1.1881,-1.197,-1.1973,-1.1998,-1.2005,-1.202,-1.2041,-1.2042,-1.2112,-1.2112,0,0,0,-1.1806,-1.1797,-1.1827,-1.1859,-1.1877,-1.1878,-1.1885,-1.1969,-1.1981,-1.2006,-1.2021,-1.2042,-1.2043,-1.2112,-1.2112,-1.2091,0,0,0,-1.1803,-1.1786,-1.1824,-1.1811,-1.1875,-1.1924,-1.1882,-1.1974,-1.1985,-1.202,-1.2042,-1.2044,-1.2112,-1.2112,-1.2092,-1.2086,0,0,0,-1.1784,-1.1784,-1.1795,-1.1809,-1.1849,-1.1923,-1.194,-1.1977,-1.1994,-1.204,-1.2044,-1.2112,-1.2112,-1.2092,-1.2087,-1.2097,0,0,0,-1.1756,-1.1776,-1.1794,-1.1822,-1.1848,-1.1909,-1.194,-1.1987,-1.2023,-1.2042,-1.2112,-1.2112,-1.2092,-1.2087,-1.2098,-1.2102,-1.2102,0,0,-1.1768,-1.1776,-1.1795,-1.1814,-1.1865,-1.1896,-1.1945,-1.2002,-1.203,-1.2083,-1.2086,-1.2092,-1.2087,-1.2097,-1.2106,-1.2106,0,0,0,-1.179,-1.1803,-1.1822,-1.1855,-1.1899,-1.1936,-1.1988,-1.2009,-1.2056,-1.2052,-1.2099,-1.2097,-1.2104,-1.2108,-1.2107,-1.2115,-1.2113,-1.2113,-1.2113,-1.1773,-1.1805,-1.1838,-1.1882,-1.1914,-1.1967,-1.1996,-1.2034,-1.2058,-1.2069,-1.2085,-1.2086,-1.2089,-1.2089,-1.2097,-1.209,-1.209,-1.209,-1.209,-1.1794,-1.1817,-1.1848,-1.189,-1.1924,-1.1961,-1.2013,-1.2029,-1.2069,-1.2077,-1.2085,-1.2092,-1.2087,-1.2096,-1.2088,-1.2089,-1.2089,-1.2089,-1.2089,-1.1786,-1.1803,-1.1827,-1.1878,-1.1914,-1.1958,-1.1993,-1.2024,-1.2053,-1.2061,-1.2081,-1.2082,-1.2086,-1.2068,-1.2068,-1.2068,-1.2068,-1.2068,-1.2068,-1.1769,-1.1797,-1.1823,-1.187,-1.1894,-1.1931,-1.1984,-1.201,-1.2046,-1.2066,-1.2066,-1.2089,-1.208,-1.2078,-1.2069,-1.2069,-1.2069,-1.2069,-1.2069,-1.1778,-1.1781,-1.1821,-1.1845,-1.1903,-1.1936,-1.1973,-1.2023,-1.2049,-1.2065,-1.2087,-1.2075,-1.2087,-1.2088,-1.2086,-1.2079,-1.2079,-1.2079,-1.2079,-1.1772,-1.178,-1.1828,-1.1865,-1.1906,-1.1943,-1.1988,-1.2029,-1.2072,-1.209,-1.2095,-1.2095,-1.2094,-1.2107,-1.2107,-1.2106,-1.2105,-1.2105,-1.2105,-1.178,-1.1793,-1.1825,-1.1866,-1.1912,-1.1952,-1.1995,-1.2038,-1.2087,-1.2106,-1.2105,-1.2104,-1.2104,-1.2102,-1.2122,-1.2122,-1.212,0,0]},{"header":{"parameterUnit":"m.s-1","parameterCategory":1,"la1":30.2992,"la2":30.254,"lo1":-89.0895,"lo2":-89.0443,"dy":0.0025,"dx":0.0025,"nx":19,"ny":19,"refTime":"2026-05-22T09:00:00:Z","depth":0,"parameterNumber":3,"parameterNumberName":"V-component_of_WINDS"},"data":[0,0,0,4.3263,4.3265,4.3379,4.338,4.3527,4.3528,0,0,0,0,0,0,0,0,0,0,0,4.3235,4.3236,4.3262,4.3265,4.3379,4.338,4.3527,4.3528,0,0,0,0,0,0,0,0,0,0,0,4.3234,4.3235,4.3237,4.3266,4.3379,4.338,4.3526,4.3439,0,0,0,0,0,0,0,0,0,0,4.3327,4.3308,4.3235,4.3237,4.3267,4.3379,4.338,4.3434,4.3444,4.3477,0,4.3513,0,4.3523,4.3539,4.3539,0,0,0,4.326,4.33,4.3326,4.3237,4.3268,4.3379,4.3326,4.344,4.3451,4.349,4.3515,4.352,4.3525,4.354,4.354,4.3758,4.3759,0,0,4.3254,4.3257,4.3319,4.3334,4.3321,4.3323,4.333,4.3446,4.3471,4.3515,4.3523,4.3528,4.3541,4.3542,4.3757,4.3758,0,0,0,4.3239,4.3253,4.3276,4.3328,4.3348,4.3326,4.3334,4.3466,4.3473,4.3525,4.353,4.3541,4.3543,4.3755,4.3757,4.3823,0,0,0,4.3235,4.3245,4.3273,4.3276,4.3347,4.341,4.3352,4.3465,4.3478,4.3529,4.3542,4.3545,4.3754,4.3756,4.3818,4.3852,0,0,0,4.3225,4.3243,4.3262,4.3276,4.3326,4.3408,4.3422,4.3468,4.3482,4.3539,4.3545,4.3753,4.3756,4.3814,4.3845,4.3909,0,0,0,4.3214,4.3318,4.3263,4.3381,4.3325,4.3449,4.3421,4.3512,4.357,4.3542,4.3754,4.3757,4.3812,4.3841,4.3904,4.3962,4.3987,0,0,4.3347,4.3335,4.3403,4.3357,4.3492,4.3431,4.3574,4.3622,4.3623,4.3712,4.3717,4.3819,4.3845,4.3908,4.4129,4.4149,0,0,0,4.3446,4.3496,4.3531,4.3587,4.3628,4.3664,4.3691,4.3708,4.3783,4.3671,4.3861,4.3875,4.3912,4.3939,4.3956,4.3986,4.3771,4.377,4.377,4.3638,4.3636,4.3748,4.3759,4.3813,4.3839,4.3881,4.3907,4.3888,4.3933,4.3958,4.4094,4.4126,4.4138,4.417,4.399,4.3991,4.3991,4.3991,4.383,4.3898,4.3871,4.397,4.3965,4.4047,4.4074,4.4057,4.413,4.4075,4.4107,4.4045,4.416,4.4187,4.3996,4.3995,4.3995,4.3994,4.3994,4.3954,4.3986,4.4007,4.4086,4.4146,4.4152,4.4223,4.4216,4.4209,4.4241,4.4265,4.4264,4.426,4.4254,4.4254,4.4255,4.4255,4.4256,4.4256,4.4072,4.4094,4.4157,4.4208,4.4242,4.4285,4.431,4.4342,4.4374,4.4363,4.4363,4.4336,4.4174,4.4131,4.4263,4.4262,4.4261,4.426,4.426,4.4265,4.422,4.4317,4.4351,4.4408,4.4467,4.4457,4.4522,4.4547,4.4581,4.4548,4.443,4.4415,4.4402,4.4366,4.4551,4.4551,4.4551,4.4551,4.4367,4.436,4.4456,4.451,4.4562,4.4563,4.4667,4.4686,4.4699,4.4713,4.4685,4.4639,4.4626,4.4618,4.46,4.4567,4.4798,4.4799,4.4799,4.4483,4.4481,4.4573,4.4588,4.4632,4.4668,4.4765,4.4825,4.4829,4.4809,4.4723,4.4713,4.4637,4.4614,4.4589,4.4561,4.45,0,0]}]]